www.pogodaiklimat.ru

Погода и климат >> Архив погоды >> Сингапур >> Singapore


АРХИВ ПОГОДЫ в Singapore

Время (UTC), дата Ветер
(напр.,м/с)
 
Видим.   Явления Облачность Т
(С)
Тd
(С)
f
(%)
Тe
(С)
Тes
(С)
Комфортность P
(гПа)
Po
(гПа)
Тmin
(С)
Tmax
(С)
R
(мм)
R24
(мм)
S
(см)
18 11.12 СЗ 2 12 км мгла 9/1 480 м
[Cu hum Ac trans Ci sp]
+25.6 +24.3 93 +36 +36 очень
душно
1010.5 1008.6
21 11.12 СЗ 2 12 км мгла 9/1 1500 м
[Sc Ac trans Ci sp]
+26.0 +24.3 90 +36 +36 очень
душно
1009.7 1007.8
00 12.12 СЗ 2 6000 м мгла 9/1 540 м
[Cu med, cong Ac trans Cs]
+26.1 +24.5 91 +37 +37 очень
душно
1010.9 1009.1 +23.9
03 12.12 С 2 12 км мгла 9/3 480 м
[Cu med, cong Ac lent Cs]
+29.6 +24.7 75 +42 +47 опасность
перегрева
1011.8 1010.0
06 12.12 С 3 12 км осадки на расстоянии 9/5 450 м
[Cb cap Ac lent Cs]
+28.7 +24.7 79 +41 +46 опасность
перегрева
1010.1 1008.3
09 12.12 С 2 8000 м осадки на расстоянии {ливн. осадки} 9/3 480 м
[Cb cap Ac lent Cs]
+28.5 +24.2 78 +40 +42 очень
душно
1009.0 1007.2 0.0
12 12.12 С 2 14 км мгла {ливн. осадки} 9/1 480 м
[Cu Sc Ac lent Cs]
+27.2 +24.3 84 +38 +38 очень
душно
1010.7 1008.8 +31.3 0.2
15 12.12 СЗ 1 14 км мгла 9/1 480 м
[Cu hum Ac trans Ci sp]
+26.5 +24.4 88 +37 +37 очень
душно
1011.5 1009.6
18 12.12 С 1 12 км мгла 9/1 480 м
[Cu hum Ac trans Ci sp]
+26.0 +24.4 91 +36 +36 очень
душно
1011.2 1009.3
21 12.12 С 1 8000 м зарница 9/1 540 м
[Cb cap Ac trans Ci sp]
+25.6 +24.3 93 +36 +36 очень
душно
1009.9 1008.0
00 13.12 СЗ 3 8000 м мгла 9/3 480 м
[Cu Sc Ac lent Cs]
+26.4 +24.4 89 +37 +37 очень
душно
1011.6 1009.8 +25.4
03 13.12 СЗ 3 10 км мгла 9/6 480 м
[Cu med, cong Ac trans Cs]
+27.9 +24.2 80 +39 +42 очень
душно
1012.9 1011.1
06 13.12 С 3 10 км мгла {дождь} 9/3 480 м
[Cu hum Ac trans Cs]
+27.7 +24.8 84 +39 +46 очень
душно
1011.0 1009.2 0.0
09 13.12 С 2 16 км мгла {дождь} 9/3 450 м
[Cu hum Ac As Cs]
+26.8 +24.0 85 +37 +39 очень
душно
1009.2 1007.4 0.0
12 13.12 С 2 16 км мгла {дождь} 9/3 480 м
[Cu hum Ac trans Cs]
+26.2 +24.1 88 +36 +36 очень
душно
1011.4 1009.6 +28.4
15 13.12 СЗ 1 14 км мгла 9/1 480 м
[Cu hum Ac lent Cs]
+25.6 +23.7 89 +35 +35 очень
душно
1012.3 1010.5
18 13.12 СЗ 2 12 км мгла 9/1 540 м
[Cu hum Ac lent Cs]
+25.8 +23.8 89 +35 +35 очень
душно
1011.5 1009.6
21 13.12 СЗ 2 10 км мгла 9/1 480 м
[Cu hum Ac trans Ci sp]
+25.6 +24.1 91 +35 +35 очень
душно
1010.1 1008.2
00 14.12 СЗ 1 8000 м мгла 9/1 480 м
[Cu med, cong Ac trans Ci sp]
+26.0 +24.3 90 +36 +37 очень
душно
1011.9 1010.1 +25.4
03 14.12 С 3 16 км мгла 9/4 540 м
[Cu Sc Ac trans Cs]
+28.0 +22.9 74 +37 +42 очень
душно
1013.0 1011.1
06 14.12 СВ 5 16 км мгла 9/5 450 м
[Cu hum Ac trans Cs]
+28.1 +24.0 78 +39 +42 очень
душно
1011.5 1009.7
09 14.12 СВ 3 16 км мгла 9/4 480 м
[Cu Sc Ac lent Cs]
+27.6 +23.8 80 +38 +40 очень
душно
1010.3 1008.4
12 14.12 С 1 14 км мгла 10/1 480 м
[Cu Sc Ac As Cs]
+26.6 +23.5 83 +36 +36 очень
душно
1011.6 1009.7 +29.6
15 14.12 СЗ 1 12 км мгла 9/1 480 м
[Cu hum Ac trans Cs]
+26.5 +23.7 85 +36 +36 очень
душно
1012.6 1010.8
18 14.12 СЗ 1 12 км мгла 9/1 480 м
[Cu hum Ac trans Cs]
+26.5 +23.7 85 +36 +36 очень
душно
1011.7 1009.9
21 14.12 З 1 9000 м мгла 9/1 480 м
[Cu hum Ac trans Cs]
+25.3 +24.2 94 +35 +35 очень
душно
1010.3 1008.4
00 15.12 СЗ 1 9000 м мгла 9/3 540 м
[Cu Sc Ac trans Cs]
+26.4 +23.8 86 +36 +37 очень
душно
1011.6 1009.8 +25.2
03 15.12 СЗ 2 7000 м мгла 9/1 540 м
[Cu Sc Ac lent Cs]
+28.0 +24.0 79 +39 +46 очень
душно
1012.4 1010.6
06 15.12 СВ 2 10 км мгла 9/3 540 м
[Cu hum Ac trans Cs]
+29.0 +24.4 76 +41 +48 опасность
перегрева
1010.1 1008.3
09 15.12 СВ 2 12 км мгла 9/3 480 м
[Cb cap Ac As Ci sp]
+30.2 +23.2 66 +40 +43 очень
душно
1008.9 1007.0
12 15.12 СЗ 3 14 км гроза без осадков 9/6 420 м
[Cb cap Ac trans Ci sp]
+26.9 +23.6 82 +37 +37 очень
душно
1011.1 1009.2 +30.3
15 15.12 З 2 14 км зарница {гроза} 9/5 480 м
[Cb cap Ac trans Cs]
+25.9 +23.3 86 +35 +35 очень
душно
1013.8 1011.9
18 15.12 СЗ 1 12 км слабый дождь {гроза} 10/1 480 м
[Cu hum Ac As Cs]
+24.9 +23.8 94 +34 +34 очень
душно
1011.9 1010.0 0.6
21 15.12 СВ 1 10 км дымка {дождь} 9/1 480 м
[Cu hum Ac lent Ci sp]
+24.6 +23.8 95 +33 +33 очень
душно
1010.8 1008.9 0.2
00 16.12 С 1 9000 м мгла {дождь} 9/1 480 м
[Cu med, cong Ac trans Ci sp]
+25.6 +24.1 91 +35 +36 очень
душно
1012.1 1010.3 +24.3
03 16.12 СЗ 2 12 км мгла 9/1 540 м
[Cu hum Ac trans Ci sp]
+29.2 +23.7 72 +40 +47 очень
душно
1012.6 1010.8
06 16.12 З 2 14 км мгла 9/3 540 м
[Cu med, cong Ac lent Ci sp]
+30.5 +24.4 70 +43 +50 опасность
перегрева
1010.7 1008.8
09 16.12 С 2 3000 м гроза, ливневой дождь 10/8 360 м
[Cb cap Ac As Cs]
+24.9 +24.5 98 +35 +35 очень
душно
1009.6 1007.7 43
12 16.12 С 2 8000 м слабый дождь {гроза, ливн. осадки} 10/1 360 м
[Cu Sc Ac As Cs]
+25.4 +24.2 93 +35 +35 очень
душно
1012.0 1010.2 +31.6 0.2
15 16.12 С 1 9000 м слабый дождь 10/1 480 м
[Cu hum Ac As Cs]
+25.1 +24.0 94 +35 +35 очень
душно
1013.2 1011.3 0.2
18 16.12 С 1 10 км мгла {дождь} 10/1 540 м
[Cu Sc Ac As Cs]
+25.3 +23.4 89 +34 +34 очень
душно
1011.8 1009.9 0.0
21 16.12 С 1 10 км мгла {дождь} 10/1 480 м
[Cu Sc Ac As Cs]
+25.3 +24.0 93 +35 +35 очень
душно
1010.9 1009.0 0.0
00 17.12 З 1 14 км мгла {дождь} 9/1 480 м
[Cu Sc Ac trans Cs]
+26.4 +24.1 87 +37 +37 очень
душно
1013.6 1011.7 +23.7
03 17.12 З 3 16 км мгла {ливн. осадки} 9/5 500 м
[Cu Sc Ac trans Cs]
+27.1 +23.6 81 +37 +41 очень
душно
1013.8 1012.0 0.0
06 17.12 Ю 3 16 км мгла {ливн. осадки} 9/1 600 м
[Cu hum Ac trans Cs]
+29.6 +23.3 69 +40 +48 очень
душно
1010.8 1009.0
09 17.12 Ю 4 16 км мгла 9/1 600 м
[Cu hum Ac lent Cs]
+29.9 +22.2 63 +39 +40 очень
душно
1009.7 1007.9
12 17.12 ЮВ 2 16 км мгла 9/1 600 м
[Cu hum Ac trans Cs]
+28.6 +22.6 70 +38 +38 очень
душно
1012.0 1010.2 +30.6
15 17.12 С 1 14 км мгла 9/1 540 м
[Cu hum Ac trans Cs]
+27.2 +24.0 83 +38 +38 очень
душно
1014.0 1012.2
18 17.12 С 2 14 км мгла 9/1 480 м
[Cu hum Ac trans Cs]
+26.4 +23.8 86 +36 +36 очень
душно
1012.2 1010.4
21 17.12 СЗ 1 10 км в посл. час дождь 9/3 450 м
[Cu Sc Ac As Cs]
+26.0 +24.6 92 +37 +37 очень
душно
1010.9 1009.0 0.2
00 18.12 С 1 9000 м в посл. час дождь 9/1 480 м
[Cu Sc Ac As Cs]
+26.2 +24.4 90 +37 +37 очень
душно
1012.4 1010.5 +25.5 0.0
03 18.12 СВ 3 16 км мгла 9/3 540 м
[Cu hum Ac trans Ci sp]
+29.7 +25.2 77 +43 +48 опасность
перегрева
1013.6 1011.8
06 18.12 ЮВ 3 16 км мгла 9/3 540 м
[Cu hum Ac As Ci sp]
+30.6 +24.5 70 +43 +49 опасность
перегрева
1011.8 1010.0
09 18.12 В 4 16 км мгла 9/3 450 м
[Cu hum Ac trans Cs]
+29.7 +24.4 73 +42 +43 опасность
перегрева
1009.5 1007.7
12 18.12 СВ 2 14 км мгла 9/1 540 м
[Cu hum Ac trans Ci sp]
+28.0 +24.4 81 +39 +39 очень
душно
1011.2 1009.4 +31.2
15 18.12 СВ 2 14 км мгла 9/1 600 м
[Cu hum Ac trans Ci sp]
+27.5 +24.4 83 +39 +39 очень
душно
1013.3 1011.5

 

Местоположение метеостанции Singapore (Сингапур): широта 1.37 долгота 103.98 высота над уровнем моря 16 м.

В архиве по умолчанию представлена погода в Singapore за последнюю неделю. Архивные данные за месяц целиком и за предыдущие месяцы, начиная с января 2011 года, Вы можете получить, выбрав интересующий диапазон дат из раскрывающегося списка и нажав кнопку "Ввод!".


*Определитесь, кто Вы:
робот инопланетянин человек

Внимание! Время в таблицах - всемирное. Для получения местного времени необходимо прибавить поправку, которая в Singapore равна 7 ч.

Смотрите также архив погоды в соседних городах и на ближайших метеорологических станциях:

Погода в Batam Hang Nadim Airport (Индонезия) (31 км)
Погода в Johore Bharu / Senai (Малайзия) (45 км)
Погода в Tanjung Pinang (Индонезия) (79 км)
Погода в Singkep Dabo Airport (Индонезия) (216 км)
Погода в Malacca (Малайзия) (217 км)
Погода в Rengat Japura Airport (Индонезия) (265 км)
Погода в Kuantan (Малайзия) (281 км)
Погода в Kuala Lumpur Int Airport (Малайзия) (295 км)
Погода в Pekanbaru (Индонезия) (299 км)
Погода в Tarempa (Индонезия) (324 км)

Пояснения к столбцам:

Ветер - указаны скорость ветра в м/с - средняя за 10 мин, порывы в срок и между сроками (в фигурных скобках) и направление, откуда дует ветер: С - северный, СВ - северо-восточный, В - восточный, ЮВ - юго-восточный, Ю - южный, ЮЗ - юго-западный, З - западный, СЗ - северо-западный.
Видимость - горизонтальная дальность видимости в метрах или километрах. При видимости от 1 до 10 км при отсутствии осадков обычно наблюдается дымка, при ухудшении видимости до 1 км и менее - туман. В сухую погоду видимость может ухудшаться дымом, пылью или мглою.
Явления - указаны атмосферные явления, наблюдавшиеся в срок или в последний час перед сроком; фигурными скобками обозначены явления, наблюдавшиеся между сроками (за 1-3 часа до срока); квадратными скобками обозначены град или гололедные отложения с указанием их диаметра в мм.
Облачность - указаны через наклонную черту общая и нижняя облачность в баллах и высота нижней границы облаков в метрах; квадратными скобками обозначены формы облаков: Ci - перистые, Cs - перисто-слоистые, Cc - перисто-кучевые, Ac - высококучевые, As - высокослоистые, Sc - слоисто-кучевые, Ns - слоисто-дождевые, Cu - кучевые, Cb - кучево-дождевые. Подробнее классификацию облаков см. в Атласе облаков (PDF).
T - Температура воздуха - температура, измеренная на высоте 2 м над землей.
Td - Температура точки росы - температура, при понижении до которой содержащийся в воздухе водяной пар достигнет насыщения.
f - Относительная влажность воздуха - влажноcть воздуха, измеренная на высоте 2 м над землей.
Te - Эффективная температура - температура, которую ощущает одетый по сезону человек в тени. Характеристика душности погоды. При расчете учитывается влияние влажности воздуха и скорости ветра на теплоощущения человека.
Tes - Эффективная температура на солнце - температура, которую ощущает человек, с поправкой на солнечный нагрев. Характеристика знойности погоды. Зависит от высоты солнца над горизонтом, облачности и скорости ветра. Ночью, в пасмурную погоду, а также при ветре 12 м/с и более поправка равна нулю.
P - Атмосферное давление - приведенное к уровню моря атмосферное давление.
Po - Атмосферное давление - измеренное на уровне метеостанции атмосферное давление.
Tmin - Минимальная температура - минимум температуры воздуха на высоте 2 м над землей.
Tmax - Максимальная температура - максимум температуры воздуха на высоте 2 м над землей.
R - Количество осадков - Количество выпавших осадков за период времени, мм. При наведении курсора мыши на число - период времени, за который выпало указанное количество осадков.
R24 - Количество осадков - Количество выпавших осадков за 24 часа, мм.
S - Снежный покров - Высота снежного покрова, см. При наведении курсора мыши на число - состояние снежного покрова и степень покрытия местности в баллах.